STARLINK-2098, 47378

Orbit data source: Space-Track

STARLINK-2098, 47378 is a payload satellite owned by SpaceX/Seattle (US) in LEO that was launched on Wed, 20 Jan 2021 UTC via an FALCON 9 launch vehicle from the Air Force Eastern Test Range (AFETR). Payload-class satellites include a variety of spacecraft equipped with specific instruments for various scientific and technological missions. These include communications satellites like Starlink; space stations such as the ISS; scientific satellites like the Hubble; Earth observation satellites from companies like Planet Labs, Umbra, and HawkEye 360; GPS; miniature CubeSats for education and research; and military/defense satellites.

Loading next visibility...
Identifier
47378, 2021-005AF
Orbit
LEO
Country
Flag of USUS
Related business
Manufacturer
SpaceX/Seattle
Mission
Operational Commercial Communications
Bus & Motor
STARLINK, Unknown motor
Mass
260 kg wet, ~248 kg dry
Launch date (UTC)
2021-01-20 (5 years ago)
Launch vehicle
FALCON 9
Launch site
Air Force Eastern Test Range (AFETR)
Object type
Payload
Rocket body
Debris
Shape & HBR
Box + 1 Pan, 10.1 m
Radar Cross Section
13.562 m², Large (>1 m²)

Expand to show TLE details & history
Last TLE update: 2 days ago

TLE from 2 days ago
0 STARLINK-2098
1 47378U 21005AF  26171.41071505 -.00000502  00000-0 -44314-5 0  9997
2 47378  53.1600 256.2959 0001082  84.0962 276.0163 15.31696989299455
Epoch: 2026-06-20T09:51Z
TLE epoch observation values (Epoch: 2026-06-20T09:51:25.780Z)
Latitude
0.00001°
Longitude
-160.18724°
Altitude
471.572 km
Speed
7.632 km/s
True Right ascension
17h 05m 11s
True Declination
0° 00' 00"
Sunlit
Object was in full shadow at epoch
Visualization orbit readout
Latitude
Unknown
Longitude
Unknown
Altitude
Unknown
Speed
Unknown
Apparent Right ascension
Unknown
Apparent Declination
Unknown
Sunlit
N/A
Visualization observer readout
Local Sidereal Time
02:13:22
Azimuth
Unknown
Elevation
Unknown
Doppler factor
Unknown
Orbital elements
Apogee altitude
471.747 km
Perigee altitude
470.264 km
Semi-major axis
6,849.143 km
Eccentricity
0.00011
Inclination
53.16°
RAAN
256.2959°
Arg. of periapsis
84.0962°
True anomaly
276.00397°
Mean anomaly
276.0163°
Eccentric anomaly
276.01013°
Mean motion
3.82903 °/min
Orbital period
94.02 mins
BSTAR
-0.0000044314
Loading maneuver chart data...
Computing Atmospheric mass density...

Documentation

Showing up to 5 results
|